カタログに戻る

STARLINK-30537

運用中通信VLEO
NORAD 57991·PAYLOAD·🇺🇸 United States

打ち上げ Oct 5, 2023 から Cape Canaveral Space Force Station

Loading…

次のパス (今後24時間)

TLE

最新Source: CelesTrak SupGP

元期: Sep 15, 2026, 01:40 UTC

1 57991C 23153A   26258.06993056 -.00018131  00000+0 -65639-3 0  2581
2 57991  43.0036  77.4577 0001992 269.4943 340.9573 15.27601437    12

AllMySatでSTARLINK-30537をリアルタイム追跡

Download on the App Store